Weather in Grasmere

United Kingdom     54°27′39″N   3°01′23″W
temp.,
°C
wind,
m/s
gust,
m/s
humid.,
%
clouds,
%
prec.,
mm/h
press.,
hPa
HPBL,
m
24 july, sat
sat2401:00+13e119395 0.0 101512
04:00+11e119586 0.0 101412
07:00+13ene129264 0.0 101293
10:00+16ene227334 0.0 1013593
13:00+18ene2265100 0.0 1012787
16:00+20e236299 0.0 10111011
19:00+18ese217154 0.0 1011472
22:00+13ese118954 0.0 101211
25 july, sun
sun2501:00+11ne119227 0.0 101111
04:00+10ne219390 0.0 101112
07:00+11ene11879 0.0 101164
10:00+16ne22701 0.0 1010601
13:00+18nne236410 0.0 10101060
16:00+20nne336118 0.0 10101256
19:00+19nne23697 0.0 1009981
22:00+14nw21847 0.0 101011
26 july, mon
mon2601:00+12nnw11874 0.0 101010
04:00+12nnw11881 0.0 100910
07:00+14ssw22850 0.0 100955
10:00+18sw22735 0.0 1009588
13:00+20w346496 0.3 10081188
16:00+19wsw356477 0.0 1008852
19:00+17w247094 0.0 1008496
22:00+12wsw119182 0.0 100812
27 july, tue
tue2701:00+11sw2294100 0.0 100819
04:00+11wsw229651 0.0 100817
07:00+12wsw1293100 0.0 100876
10:00+16wsw1174100 0.0 1008571
13:00+16w1280100 0.3 1009445
16:00+18w1269100 0.8 1008960
19:00+17nw0174100 1.4 1007596
22:00+12nne1192100 0.6 100811
28 july, wed
wed2801:00+12s1195100 1.3 100610
04:00+12sse1298100 1.8 100469
07:00+12ssw2297100 2.6 1003135
10:00+12s2396100 2.3 1002234
13:00+15wsw577540 3.0 10011029
16:00+15sw577196 0.3 10011171
19:00+13sw4778100 0.6 1000878
22:00+9ssw339496 0.1 100149